This is the latest recevied weather packets stored in our database for station/object KC9NPJ-13. If no packets are shown the sender has not sent any weather packets the latest 1 day(s).
| Time | Temp. | Humidity | Pressure | Rain* | Wind** | Luminosity | Snow |
|---|---|---|---|---|---|---|---|
| 1778043551 | 7.22° C | 94% | 1012.2 hPa | 3.05 mm | 0.45 m/s, 308° | - | - |
| 1778043238 | 7.22° C | 94% | 1012.6 hPa | 3.3 mm | 0 m/s | - | - |
| 1778042938 | 7.22° C | 94% | 1012.4 hPa | 4.06 mm | 0.45 m/s, 350° | - | - |
| 1778042638 | 7.22° C | 94% | 1012.2 hPa | 4.32 mm | 0.45 m/s, 344° | - | - |
| 1778042338 | 7.22° C | 94% | 1011.8 hPa | 4.32 mm | 0.89 m/s, 78° | - | - |
| 1778042038 | 7.22° C | 94% | 1011.6 hPa | 4.06 mm | 0.89 m/s, 180° | - | - |
| 1778041738 | 7.22° C | 94% | 1012.1 hPa | 3.81 mm | 0.89 m/s, 336° | - | - |
| 1778041438 | 7.22° C | 94% | 1011.9 hPa | 3.56 mm | 0.89 m/s, 92° | - | - |
| 1778041138 | 7.78° C | 94% | 1012.1 hPa | 3.05 mm | 0.89 m/s, 98° | - | - |
| 1778040838 | 7.78° C | 94% | 1012.1 hPa | 2.79 mm | 0.89 m/s, 352° | - | - |
| 1778040538 | 7.78° C | 94% | 1012.1 hPa | 2.79 mm | 0.45 m/s, 107° | - | - |
| 1778040238 | 7.78° C | 94% | 1011.8 hPa | 2.54 mm | 0.89 m/s, 305° | - | - |
| 1778039938 | 7.78° C | 94% | 1011.7 hPa | 2.54 mm | 0.89 m/s, 115° | - | - |
| 1778039638 | 7.78° C | 94% | 1011.8 hPa | 2.03 mm | 0.89 m/s, 8° | - | - |
| 1778039338 | 7.78° C | 94% | 1011.6 hPa | 1.52 mm | 0.89 m/s, 109° | - | - |
| 1778039038 | 7.78° C | 94% | 1011.7 hPa | 1.78 mm | 0.89 m/s, 75° | - | - |
| 1778038739 | 8.33° C | 95% | 1011 hPa | 2.03 mm | 0.89 m/s, 335° | - | - |
| 1778038438 | 8.33° C | 95% | 1011.3 hPa | 2.29 mm | 0.89 m/s, 7° | - | - |
| 1778038138 | 8.33° C | 95% | 1011.7 hPa | 2.79 mm | 1.34 m/s, 7° | - | - |
| 1778037838 | 8.33° C | 95% | 1011.6 hPa | 3.81 mm | 1.34 m/s, 20° | - | - |
| 1778037539 | 8.89° C | 96% | 1011.3 hPa | 5.59 mm | 0.89 m/s, 358° | - | - |
| 1778037239 | 8.89° C | 95% | 1011.3 hPa | 7.37 mm | 0.45 m/s, 356° | - | - |
| 1778036939 | 8.89° C | 95% | 1011.3 hPa | 7.62 mm | 0.45 m/s, 88° | - | - |
| 1778036639 | 8.89° C | 95% | 1011.4 hPa | 7.62 mm | 0.89 m/s, 38° | - | - |
| 1778036339 | 8.33° C | 95% | 1011.9 hPa | 7.62 mm | 0.89 m/s, 350° | - | - |
* Rain latest hour (hover to see other rain measurements)
** Current wind speed in m/s (hover to see current wind gust speed)